Content
SEND FEEDBACK

Daily
Averages
Monthly
Summary
United States of America

ATLANTA, KANSAS


Home > North America > United States > Kansas
Elevation: 1440 feet     Latitude: 37 26N     Longitude: 096 46W

WEATHER
 
SELECT A DAY
Number of Records: 16,846;   Date Range: 9/1/12 - 7/7/14
 
SHARE

PRINT THIS DATA

[ ← Previous Day ]
WEATHER ALMANAC - JANUARY 31, 2013
[ Next Day → ]
[ °C ]   °F
Weather ElementAverageHighLow
Temperature26.5 °F37 °F (10:54 am)18 °F (10:54 pm)
Dewpoint16.2 °F25 °F (11:54 am)7 °F (6:54 pm)
Humidity65.8 %85 % (3:54 am)47 % (4:54 pm)
Barometer30.24 in30.50 in (7:54 pm)30.01 in (4:54 am)
Wind Speed10 mph23 mph (1:34 pm)
Wind Gust33.4 mph (2:54 pm)
Weather ElementAverage
Visibility10 mi
Wind DirectionSE (138.7 °)

Weather ElementTotal
Precipitation---
Heating Degree Days37.5 (Base 65)
Averaged from 23 records on January 31, 2013
WEATHER CONDITIONS BREAKOUT
WIND DIRECTION BREAKOUT
WEATHER BY HOUR - JANUARY 31, 2013
[ °C ]   °F
Local TimeTemperatureDewpointHumidityBarometerVisibilityWind DirectionWind SpeedGust SpeedPrecipitationEventsConditions
1:54 AM24.1 °F19.0 °F81 %30.03 in10.0 miSSW (210°)4.6 mphClear
2:54 AM24.1 °F19.9 °F84 %30.03 in10.0 miSouth (170°)3.5 mphClear
3:54 AM23.0 °F19.0 °F85 %30.02 in10.0 miSSE (160°)4.6 mphClear
4:54 AM24.1 °F19.0 °F81 %30.01 in10.0 miCalmClear
5:54 AM19.9 °F16.0 °F85 %30.05 in10.0 miWNW (290°)3.5 mphClear
6:54 AM23.0 °F16.0 °F74 %30.05 in10.0 miCalmPartly Cloudy
7:54 AM25.0 °F18.0 °F75 %30.07 in10.0 miCalmClear
8:54 AM28.9 °F21.0 °F72 %30.12 in10.0 miNNW (340°)3.5 mphClear
9:54 AM34.0 °F24.1 °F67 %30.15 in10.0 miNorth (360°)9.2 mphMostly Cloudy
10:54 AM37.0 °F24.1 °F59 %30.22 in10.0 miNorth (350°)12.7 mphMostly Cloudy
11:54 AM37.0 °F25.0 °F62 %30.24 in10.0 miNorth (10°)15.0 mphOvercast
12:54 PM34.0 °F21.9 °F61 %30.26 in10.0 miNorth (10°)20.7 mphMostly Cloudy
1:34 PM32.0 °F21.2 °F64 %30.25 in10.0 miNNE (30°)23.0 mph27.6 mphMostly Cloudy
2:09 PM33.8 °F21.2 °F60 %30.24 in10.0 miNorth (10°)19.6 mph27.6 mph0.00 inMostly Cloudy
2:54 PM28.9 °F15.1 °F56 %30.30 in10.0 miNorth (10°)20.7 mph33.4 mph0.00 inMostly Cloudy
3:54 PM28.9 °F14.0 °F54 %30.35 in10.0 miNorth (10°)20.7 mph27.6 mphPartly Cloudy
4:54 PM28.0 °F10.0 °F47 %30.37 in10.0 miNorth (360°)21.9 mph28.8 mphClear
5:54 PM24.1 °F8.1 °F51 %30.41 in10.0 miNorth (360°)12.7 mphClear
6:54 PM21.9 °F7.0 °F53 %30.47 in10.0 miNorth (360°)12.7 mphClear
7:54 PM21.0 °F8.1 °F57 %30.50 in10.0 miNNE (30°)5.8 mphClear
8:54 PM19.9 °F7.0 °F57 %30.50 in10.0 miNNE (30°)5.8 mphClear
9:54 PM19.9 °F8.1 °F60 %30.50 in10.0 miNE (40°)4.6 mphClear
10:54 PM18.0 °F9.0 °F68 %30.49 in10.0 miNE (50°)4.6 mphClear
Hourly data recorded from KWLD, located miles away from Atlanta, Kansas







STORIES FROM OUR PARTNERS